Regional Weather Roundup
Issued by NWS Charleston, WV

Home | Current Version | Previous Version | Graphics & Text | Print | Product List | Glossary On
Versions: 1 2 3 4 5 6 7 8 9 10 11 12 13 14 15 16 17 18 19 20 21 22 23 24 25 26 27 28 29 30 31 32 33 34 35 36 37 38 39 40 41 42 43 44 45 46 47 48 49 50
000
ASUS41 KRLX 021710
RWRRLX
West Virginia Regional Weather Roundup
National Weather Service Charleston WV
1200 PM EST MON MAR 02 2015

Note: "fair" indicates few or no clouds below 12,000 feet with no
significant weather and/or obstructions to visibility.

WVZ003-021800-
Northern Panhandle of West Virginia

CITY           SKY/WX    TMP DP  RH WIND       PRES   REMARKS
WHEELING       CLOUDY    27  15  61 W12       30.44R
$$

WVZ009-021800-
Northwest West Virginia

CITY           SKY/WX    TMP DP  RH WIND       PRES   REMARKS
PARKERSBURG    MOSUNNY   30  17  58 MISG      30.52S
$$

WVZ006-021800-
Western West Virginia

CITY           SKY/WX    TMP DP  RH WIND       PRES   REMARKS
HUNTINGTON     SUNNY     34  21  59 N8        30.49F
$$

WVZ015-021800-
West Central West Virginia

CITY           SKY/WX    TMP DP  RH WIND       PRES   REMARKS
CHARLESTON     MOSUNNY   37  21  52 N8        30.46S
$$

WVZ022-031-021800-
North Central West Virginia

CITY           SKY/WX    TMP DP  RH WIND       PRES   REMARKS
CLARKSBURG     MOSUNNY   31  20  63 W10       30.42R
MORGANTOWN     PTSUNNY   32  16  51 W9        30.42R
$$

WVZ025-035-042-045-021800-
Southern West Virginia

CITY           SKY/WX    TMP DP  RH WIND       PRES   REMARKS
BECKLEY        SUNNY     33  20  58 NW10      30.36S
LOGAN            N/A     36  21  55 N8        30.39F
BLUEFIELD      PTSUNNY   35  26  69 W15       30.33F
LEWISBURG      SUNNY     39  19  45 NW9       30.33S
$$

WVZ047-021800-
Northern Mountains of West Virginia

CITY           SKY/WX    TMP DP  RH WIND       PRES   REMARKS
ELKINS         PTSUNNY   31  20  63 W13       30.37R
$$

WVZ052-021800-
Eastern Panhandle of West Virginia

CITY           SKY/WX    TMP DP  RH WIND       PRES   REMARKS
MARTINSBURG    SUNNY     40  17  39 NW20G28   30.30S
PETERSBURG     SUNNY     40  11  31 W12G22    30.32R
$$



USA.gov is the U.S. government's official web portal to all federal, state and local government web resources and services.